Location: Heidgraben
(53.7081°N, 9.6576°E)
Time: 08:43:06
(UTC+00:00)

Cosmos 1606 - Pass Details

Date: 05 July 2020
Orbit: 504 x 527 km, 82.5° (Epoch: 14 August)

Event Time Altitude Azimuth Distance (km) Brightness Sun altitude
Rises 22:43:44 0° 347° (NNW) 2,666 8.4 -13.1°
Reaches altitude 10° 22:45:53 10° 346° (NNW) 1,775 6.9 -13.1°
Maximum altitude 22:49:46 77° 262° (W) 547 2.7 -13.2°
Enters shadow 22:52:10 22° 178° (S) 1,173 3.9 -13.3°
